Regional Weather Roundup
Issued by NWS

Home | Current Version | Previous Version | Graphics & Text | Print | Product List | Glossary On
Versions: 1 2 3 4 5 6 7 8 9 10 11 12 13 14 15 16 17 18 19 20 21 22 23 24 25 26 27 28 29 30 31 32 33 34 35 36 37 38 39 40 41 42 43 44 45 46 47 48 49 50
000
ASUS45 KBOU 060907
RWRCO

WEATHER ROUNDUP FOR COLORADO
NATIONAL WEATHER SERVICE DENVER/BOULDER CO
200 AM MST TUE DEC 06 2016

NOTE: "FAIR" INDICATES FEW OR NO CLOUDS BELOW 12000 FEET WITH NO
SIGNIFICANT WEATHER AND/OR OBSTRUCTIONS TO VISIBILITY.

COZ001>005-013-030-031-061000-
...NORTHWEST COLORADO...

CITY           SKY/WX    TMP DP  RH WIND       PRES   REMARKS
CRAIG          FAIR      -3  -9  75 CALM      29.97F
HAYDEN         FAIR       1 -11  55 E3        29.94S
MEEKER         CLOUDY     4  -3  73 N6        29.95F WCI  -7
MOUNT WERNER   NOT AVBL
STEAMBOAT SPGS FAIR      -3  -9  77 CALM      29.94S
WALDEN           N/A     -8 -17  65 SE8       29.86S WCI -23
$$

COZ006>008-011-061000-
...WEST CENTRAL VALLEYS...

CITY           SKY/WX    TMP DP  RH WIND       PRES   REMARKS
GRAND JUNCTION FAIR      19   7  59 E7        29.96S WCI  10
MONTROSE       FAIR      18  10  71 SE6       29.97F WCI  10
EAGLE          CLOUDY    20   3  48 W3        29.94S
RIFLE          CLOUDY    23   3  42 W5        29.96S WCI  17
DELTA          NOT AVBL
NUCLA          FAIR      21  14  73 E7        29.95R WCI  13
$$

COZ017>023-064>068-061000-
...SOUTHWEST COLORADO...

CITY           SKY/WX    TMP DP  RH WIND       PRES   REMARKS
DURANGO        FAIR      21  14  74 E3        29.90R
CORTEZ         FAIR      22  19  89 E6        29.91R WCI  14
PAGOSA SPRINGS FAIR      22  13  68 NE3       29.90S
TELLURIDE      FAIR      20   6  53 CALM      29.89S
WOLF CREEK PAS FAIR       9   9 100 S18G28    29.89R WCI -10
$$

COZ009-010-012-014-032>034-037-058>063-061000-
...CENTRAL COLORADO...

CITY           SKY/WX    TMP DP  RH WIND       PRES   REMARKS
ASPEN          CLOUDY    17   4  56 S5        29.87F WCI  10
BUENA VISTA    FAIR      24   6  46 W12       29.81R WCI  13
COPPER MTN     CLOUDY     5  -4  66 MISG      29.72R
BERTHOUD PASS  LGT SNOW  -4 -15  59 W24G52    29.63R VSB 3/4 WCI -29
COTTONWOOD PAS CLOUDY    21   9  58 NW8       29.77S WCI  12
GUNNISON       FAIR      14   4  64 CALM      29.89S
KREMMLING      CLOUDY     7   0  72 CALM      29.92S
LEADVILLE      LGT SNOW   6  -1  73 N14G22    29.77F WCI -11
MONARCH PASS   CLOUDY     5   3  92 SW32      29.86R WCI -20
SALIDA         FAIR      29  10  43 W17       29.91R WCI  17
SUNLIGHT       LGT SNOW   5   0  78 SW8G21    29.82F WCI  -8
WILKERSON PASS FAIR      10   0  61 SW12G24   29.76R WCI  -4
$$

COZ069>075-061000-
...SAN LUIS VALLEY/SANGRE DE CRISTO MOUNTAINS...

CITY           SKY/WX    TMP DP  RH WIND       PRES   REMARKS
ALAMOSA        FAIR      10   5  80 NE5       29.85R WCI   2
LA VETA PASS   FAIR      19   5  53 N10G23    29.83R WCI   8
SAGUACHE       FAIR      21  10  63 NW13      29.88R WCI   9
$$

COZ035-036-038>040-061000-
...NORTHERN COLORADO FRONT RANGE...

CITY           SKY/WX    TMP DP  RH WIND       PRES   REMARKS
DENVER INTL AP FAIR      10  -6  48 SE8       29.93S WCI  -2
DMNS CITY PARK   N/A     17  -6  35 SE9       29.94S WCI   6
AURORA         PTCLDY    11  -5  48 SE12      29.93R WCI  -3
FRONT RANGE AP FAIR      14  -4  44 SE7       29.95R WCI   4
ERIE MUNI ARPT FAIR      21  -3  34 S5        29.95R WCI  15
BOULDER MUN AP FAIR      23  -4  30 S6        29.93S WCI  16
CENTENNIAL     FAIR      15  -4  42 SE9       29.92R WCI   3
BROOMFIELD     FAIR      19   0  42 S6        29.93R WCI  11
FORT COLLINS   FAIR      23 -15  18 NW20G30   29.93S WCI   8
LONGMONT       FAIR      25 -11  20 CALM      29.96R
$$

COZ041-046-047-076>085-087-088-061000-
...PIKES PEAK/PALMER DIVIDE AND SOUTHERN FOOTHILLS...

CITY           SKY/WX    TMP DP  RH WIND       PRES   REMARKS
COLO. SPRINGS  FAIR      12  -6  44 N5        29.94R WCI   4
A. F. ACADEMY  FAIR      10  -4  54 VRB7      29.90R WCI  -1
SCHRIEVER AFB  NOT AVBL
ELLICOTT       LGT RAIN N/A N/A N/A CALM        N/A
FALCON         FAIR      11  -6  44 N3        29.91S
FORT CARSON    FAIR      12  -4  47 S7        29.93R WCI   1
LIMON          FAIR       9   5  84 NW6       29.95R WCI  -1
MONUMENT HILL  FAIR       9  -6  52 SE5       29.90R WCI   0
TRINIDAD       FAIR      14   1  56 CALM      29.98R
$$

COZ042>045-048>051-090-091-061000-
...NORTHEAST COLORADO...

CITY           SKY/WX    TMP DP  RH WIND       PRES   REMARKS
GREELEY ARPT   FAIR      15  -7  37 CALM      29.97R
AKRON          FAIR       9   3  77 N9        29.97R WCI  -4
BURLINGTON     FAIR      12   4  70 NW6       29.98R WCI   3
WRAY           NOT AVBL
STERLING       FAIR       9   3  78 NW9       30.01R WCI  -5
HOLYOKE        FAIR      14   9  79 W7        30.01R WCI   4
FORT MORGAN    FAIR      12   5  76 N12       29.99S WCI  -2
$$

COZ086-089-092>099-061000-
...SOUTHEAST COLORADO...

CITY           SKY/WX    TMP DP  RH WIND       PRES   REMARKS
PUEBLO         FAIR      15   1  53 CALM      30.00R
LA JUNTA       FAIR      17   6  62 NW8       30.03R WCI   7
LAMAR          FAIR      17   8  67 W8        30.02R WCI   7
SPRINGFIELD      N/A     16   7  67 NW10      29.99R WCI   4
$$



USA.gov is the U.S. government's official web portal to all federal, state and local government web resources and services.